This demonstration page uses our WeatherBlox Daily Observations layout. Learn more.

Left ArrowRight Arrow

39.51506, -84.39828

Hourly Observations for February 22, 2016

Temp ( °F °C ) Dew Point ( °F °C ) Humidity (%) Winds ( mph kmh ) Pressure ( in mb ) Visibility ( mi km ) Precip ( " mm )
12:15 am 00:15 Clear 39 4 33 0.5 78 78 NNE 6 9 30.15 1021 10 16 0.00 0.00
12:35 am 00:35 Clear 39 3.7 33 0.5 80 80 NNE 5 7 30.15 1021 10 16 0.00 0.00
12:55 am 00:55 Clear 37 2.6 32 -0.1 83 83 NNE 3 6 30.15 1021 10 16 0.00 0.00
1:15 am 01:15 Clear 37 2.7 32 0 83 83 N 3 6 30.15 1021 10 16 0.00 0.00
1:35 am 01:35 Clear 37 2.6 32 0 83 83 Calm 30.15 1021 10 16 0.00 0.00
1:55 am 01:55 Clear 37 2.6 32 0.2 84 84 Calm 30.15 1021 10 16 0.00 0.00
2:15 am 02:15 Clear 34 1.3 31 -0.6 87 87 N 3 6 30.15 1021 10 16 0.00 0.00
2:35 am 02:35 Clear 34 1.2 31 -0.7 87 87 Calm 30.15 1021 10 16 0.00 0.00
2:55 am 02:55 Clear 34 1.2 31 -0.5 89 89 Calm 30.15 1021 10 16 0.00 0.00
3:15 am 03:15 Clear 34 1.2 31 -0.5 89 89 Calm 30.15 1021 10 16 0.00 0.00
3:35 am 03:35 Clear 34 1.2 31 -0.5 89 89 N 5 7 30.15 1021 10 16 0.00 0.00
3:55 am 03:55 Clear 34 1.2 31 -0.5 89 89 N 7 11 30.15 1021 10 16 0.00 0.00
4:15 am 04:15 Clear 34 1.2 31 -0.7 87 87 N 6 9 30.18 1022 10 16 0.00 0.00
4:35 am 04:35 Clear 34 1.2 31 -0.7 87 87 N 5 7 30.18 1022 10 16 0.00 0.00
4:55 am 04:55 Clear 34 1.2 31 -0.7 87 87 N 5 7 30.18 1022 10 16 0.00 0.00
5:15 am 05:15 Clear 34 1.2 31 -0.7 87 87 N 5 7 30.18 1022 10 16 0.00 0.00
5:35 am 05:35 Clear 34 1.2 31 -0.5 89 89 N 6 9 30.18 1022 10 16 0.00 0.00
5:55 am 05:55 Clear 34 1.2 31 -0.7 87 87 NNE 6 9 30.18 1022 10 16 0.00 0.00
6:15 am 06:15 Partly Cloudy 34 1.2 30 -1 85 85 NNE 8 13 30.18 1022 10 16 0.00 0.00
6:35 am 06:35 Partly Cloudy 34 1.2 30 -1.1 85 85 NNE 8 13 30.18 1022 10 16 0.00 0.00
6:55 am 06:55 Clear 34 1.2 30 -1 85 85 NNE 7 11 30.18 1022 10 16 0.00 0.00
7:15 am 07:15 Clear 34 1.2 30 -1 85 85 NE 5 7 30.21 1023 10 16 0.00 0.00
7:35 am 07:35 Sunny 34 1.2 30 -1 85 85 NNE 5 7 30.21 1023 10 16 0.00 0.00
7:55 am 07:55 Sunny 34 1.2 30 -1 85 85 NNE 5 7 30.21 1023 10 16 0.00 0.00
8:15 am 08:15 Sunny 34 1.2 30 -1 85 85 NNE 3 6 30.21 1023 10 16 0.00 0.00
8:35 am 08:35 Sunny 34 1.2 30 -1 85 85 NNE 3 6 30.21 1023 10 16 0.00 0.00
8:55 am 08:55 Sunny 37 2.6 32 0 83 83 ENE 5 7 30.21 1023 10 16 0.00 0.00
9:15 am 09:15 Sunny 37 2.8 31 -0.5 79 79 NE 7 11 30.21 1023 10 16 0.00 0.00
9:35 am 09:35 Sunny 39 4 32 0 75 75 ENE 6 9 30.21 1023 10 16 0.00 0.00
9:55 am 09:55 Sunny 40 4.4 31 -0.4 71 71 NE 8 13 30.21 1023 10 16 0.00 0.00
10:15 am 10:15 Sunny 42 5.5 31 -0.6 65 65 ENE 9 15 30.15 1021 10 16 0.00 0.00
10:35 am 10:35 Sunny 42 5.7 31 -0.8 63 63 NE 12 19 30.15 1021 10 16 0.00 0.00
10:55 am 10:55 Sunny 43 6.1 30 -1.1 60 60 ENE 8 13 30.15 1021 10 16 0.00 0.00
11:15 am 11:15 Sunny 43 6.2 29 -1.6 58 58 ENE 9 15 30.15 1021 10 16 0.00 0.00
11:35 am 11:35 Sunny 44 6.8 29 -1.4 56 56 E 8 13 30.15 1021 10 16 0.00 0.00
11:55 am 11:55 Sunny 47 8.2 31 -0.6 54 54 NNE 9 15 30.15 1021 10 16 0.00 0.00
12:15 pm 12:15 Sunny 49 9.6 32 -0.1 51 51 E 6 9 30.15 1021 10 16 0.00 0.00
12:35 pm 12:35 Sunny 49 9.6 31 -0.3 50 50 NNE 7 11 30.15 1021 10 16 0.00 0.00
12:55 pm 12:55 Sunny 49 9.6 31 -0.7 49 49 ENE 6 9 30.12 1020 10 16 0.00 0.00
1:15 pm 13:15 Sunny 49 9.6 30 -1.3 47 47 NE 7 11 30.12 1020 10 16 0.00 0.00
1:35 pm 13:35 Sunny 49 9.6 29 -1.8 45 45 NE 7 11 30.09 1019 10 16 0.00 0.00
1:55 pm 13:55 Sunny 49 9.7 29 -1.9 45 45 E 6 9 30.09 1019 10 16 0.00 0.00
2:15 pm 14:15 Sunny 49 9.6 28 -2.4 43 43 Calm 30.09 1019 10 16 0.00 0.00
2:35 pm 14:35 Sunny 51 10.5 28 -2.1 42 42 ESE 6 9 30.09 1019 10 16 0.00 0.00
2:55 pm 14:55 Sunny 52 11 29 -1.8 41 41 NE 7 11 30.09 1019 10 16 0.00 0.00
3:15 pm 15:15 Sunny 52 10.9 29 -1.6 42 42 NE 7 11 30.09 1019 10 16 0.00 0.00
3:35 pm 15:35 Sunny 52 11 30 -1.3 43 43 E 5 7 30.09 1019 10 16 0.00 0.00
3:55 pm 15:55 Sunny 52 11 29 -1.5 42 42 ENE 6 9 30.09 1019 10 16 0.00 0.00
4:15 pm 16:15 Sunny 52 11 29 -1.9 41 41 E 6 9 30.09 1019 10 16 0.00 0.00
4:35 pm 16:35 Sunny 52 11 29 -1.7 41 41 ENE 6 9 30.06 1018 10 16 0.00 0.00
4:55 pm 16:55 Sunny 51 10.8 30 -1.3 43 43 E 7 11 30.06 1018 10 16 0.00 0.00
5:15 pm 17:15 Sunny 50 10.1 29 -1.8 44 44 E 7 11 30.06 1018 10 16 0.00 0.00
5:35 pm 17:35 Sunny 49 9.6 29 -1.6 46 46 E 7 11 30.06 1018 10 16 0.00 0.00
5:55 pm 17:55 Sunny 49 9.6 31 -0.8 49 49 ENE 9 15 30.06 1018 10 16 0.00 0.00
6:15 pm 18:15 Sunny 49 9.6 31 -0.5 50 50 ENE 7 11 30.06 1018 10 16 0.00 0.00
6:35 pm 18:35 Clear 47 8.2 31 -0.6 54 54 NE 7 11 30.06 1018 10 16 0.00 0.00
6:55 pm 18:55 Clear 47 8.2 32 0.1 57 57 ENE 9 15 30.06 1018 10 16 0.00 0.00
7:15 pm 19:15 Clear 45 7.2 32 -0.2 60 60 ENE 8 13 30.06 1018 10 16 0.00 0.00
7:35 pm 19:35 Clear 44 6.8 32 -0.1 62 62 ENE 8 13 30.06 1018 10 16 0.00 0.00
7:55 pm 19:55 Clear 43 6.3 32 0 64 64 NE 7 11 30.09 1019 10 16 0.00 0.00
8:15 pm 20:15 Clear 44 6.6 31 -0.4 61 61 ENE 9 15 30.09 1019 10 16 0.00 0.00
8:35 pm 20:35 Clear 43 6 31 -0.5 63 63 NE 9 15 30.09 1019 10 16 0.00 0.00
8:55 pm 20:55 Clear 42 5.5 31 -0.5 66 66 NE 8 13 30.09 1019 10 16 0.00 0.00
9:15 pm 21:15 Clear 42 5.5 31 -0.3 67 67 NE 7 11 30.09 1019 10 16 0.00 0.00
9:35 pm 21:35 Clear 40 4.6 31 -0.3 71 71 NNE 6 9 30.09 1019 10 16 0.00 0.00
9:55 pm 21:55 Clear 39 4.1 31 -0.7 71 71 NNE 7 11 30.12 1020 10 16 0.00 0.00
10:15 pm 22:15 Clear 39 4.1 30 -0.9 70 70 NNE 7 11 30.12 1020 10 16 0.00 0.00
10:35 pm 22:35 Clear 39 4 30 -1.2 69 69 NNE 8 13 30.12 1020 10 16 0.00 0.00
10:55 pm 22:55 Clear 39 4 30 -1 70 70 NNE 8 13 30.12 1020 10 16 0.00 0.00
11:15 pm 23:15 Clear 39 4 31 -0.6 72 72 NE 7 11 30.12 1020 10 16 0.00 0.00
11:35 pm 23:35 Clear 38 3.4 31 -0.8 74 74 NNE 7 11 30.12 1020 10 16 0.00 0.00
11:55 pm 23:55 Clear 37 2.6 29 -1.6 74 74 NNE 7 11 30.12 1020 10 16 0.00 0.00

Powered by AerisWeather